Doylestown, PA

12:11 PM EST on December 13, 2017 (GMT -0500)
Doylestown

Weather History for KDYL - March, 2013

Change the Weather History Date:

Saturday, March 23, 2013

  Actual Average (KTTN) Record (KTTN)
Temperature  
Mean Temperature 36 °F -  
Max Temperature 48 °F 50 °F 81 °F (2012)
Min Temperature 28 °F 33 °F 13 °F (1934)
Degree Days  
Heating Degree Days 28    
Moisture  
Dew Point 18 °F    
Average Humidity 48    
Maximum Humidity 64    
Minimum Humidity 34    
Precipitation  
Precipitation 0.00 in - - ()
Sea Level Pressure  
Sea Level Pressure 29.92 in    
Wind  
Wind Speed 9 mph (WNW)    
Max Wind Speed 15 mph    
Max Gust Speed 24 mph    
Visibility 10 miles    
Events      
Averages and records for this station are not official NWS values.
T = Trace of Precipitation, MM = Missing Value Source: NWS Daily Summary

Daily Weather History Graph

Daily Weather History Graph

Search for Another Location

Airport or City:

Trip Planner

Search our weather history database for the weather conditions in past years. The results will help you decide how hot, cold, wet, or windy it might be!

Date:

Astronomy

Mar. 23, 2013 Rise Set
Actual Time 6:58 AM EDT 7:15 PM EDT
Civil Twilight 6:31 AM EDT 7:43 PM EDT
Nautical Twilight 5:59 AM EDT 8:15 PM EDT
Astronomical Twilight 5:27 AM EDT 8:47 PM EDT
Moon 3:39 PM EDT (3/23) 4:34 AM EDT (3/23)
Length of Visible Light 13h 11m
Length of Day
12h 17m
Waxing Gibbous, 85% of the Moon is Illuminated
Mar 23
Waxing Gibbous
Mar 27
Full
Apr 3
Last Quarter
Apr 10
New
Apr 18
First Quarter

Hourly Weather History & Observations

Time (EDT) Temp. Windchill Dew Point Humidity Pressure Visibility Wind Dir Wind Speed Gust Speed Precip Events Conditions
12:54 AM 30.0 °F 21.1 °F 18.0 °F 61% 29.94 in 10.0 mi WNW 10.4 mph - N/A   Clear
1:54 AM 30.0 °F 23.2 °F 18.0 °F 61% 29.94 in 10.0 mi West 6.9 mph - N/A   Clear
2:54 AM 30.0 °F 24.1 °F 18.0 °F 61% 29.93 in 10.0 mi West 5.8 mph - N/A   Overcast
3:54 AM 30.0 °F 21.7 °F 18.0 °F 61% 29.92 in 10.0 mi WNW 9.2 mph - N/A   Scattered Clouds
4:54 AM 28.9 °F 21.9 °F 18.0 °F 64% 29.92 in 10.0 mi West 6.9 mph - N/A   Clear
5:54 AM 28.9 °F 22.8 °F 17.1 °F 61% 29.93 in 10.0 mi West 5.8 mph - N/A   Clear
6:54 AM 28.9 °F 22.8 °F 17.1 °F 61% 29.95 in 10.0 mi West 5.8 mph - N/A   Mostly Cloudy
7:54 AM 30.0 °F 25.2 °F 18.0 °F 61% 29.95 in 10.0 mi Variable 4.6 mph - N/A   Mostly Cloudy
9:54 AM 36.0 °F 27.5 °F 19.0 °F 50% 29.94 in 10.0 mi WNW 12.7 mph 20.7 mph N/A   Clear
10:54 AM 39.0 °F 31.0 °F 19.0 °F 45% 29.93 in 10.0 mi WNW 13.8 mph 19.6 mph N/A   Clear
11:54 AM 42.1 °F 35.7 °F 19.0 °F 40% 29.93 in 10.0 mi WNW 11.5 mph 23.0 mph N/A   Scattered Clouds
12:54 PM 43.0 °F 35.7 °F 19.0 °F 38% 29.91 in 10.0 mi WNW 15.0 mph 21.9 mph N/A   Mostly Cloudy
1:54 PM 44.1 °F 38.1 °F 19.0 °F 37% 29.90 in 10.0 mi NW 11.5 mph 24.2 mph N/A   Mostly Cloudy
2:54 PM 45.0 °F 39.7 °F 18.0 °F 34% 29.88 in 10.0 mi NNW 10.4 mph 24.2 mph N/A   Scattered Clouds
3:54 PM 44.1 °F 38.1 °F 18.0 °F 35% 29.88 in 10.0 mi NNW 11.5 mph 20.7 mph N/A   Mostly Cloudy
4:54 PM 43.0 °F 36.4 °F 18.0 °F 37% 29.88 in 10.0 mi WNW 12.7 mph 19.6 mph N/A   Mostly Cloudy
5:54 PM 44.1 °F 39.0 °F 17.1 °F 34% 29.88 in 10.0 mi WNW 9.2 mph 20.7 mph N/A   Clear
6:54 PM 42.1 °F 34.9 °F 17.1 °F 37% 29.91 in 10.0 mi WNW 13.8 mph 23.0 mph N/A   Clear
7:54 PM 39.0 °F 34.0 °F 17.1 °F 41% 29.93 in 10.0 mi NW 6.9 mph - N/A   Partly Cloudy
8:54 PM 37.9 °F 32.1 °F 17.1 °F 43% 29.94 in 10.0 mi NW 8.1 mph 16.1 mph N/A   Clear
9:54 PM 37.0 °F 32.4 °F 16.0 °F 42% 29.95 in 10.0 mi WNW 5.8 mph - N/A   Clear
10:54 PM 36.0 °F 31.1 °F 16.0 °F 44% 29.96 in 10.0 mi NW 5.8 mph - N/A   Clear
11:54 PM 34.0 °F 27.2 °F 17.1 °F 50% 29.95 in 10.0 mi NNW 8.1 mph - N/A   Clear